TimeEDT,TemperatureF,Dew PointF,Humidity,Sea Level PressureIn,VisibilityMPH,Wind Direction,Wind SpeedMPH,Gust SpeedMPH,PrecipitationIn,Events,Conditions,WindDirDegrees,DateUTC
12:53 AM,70.0,61.0,73,30.01,10.0,SE,6.9,-,N/A,,Scattered Clouds,140,2013-03-12 04:53:00
1:53 AM,71.1,61.0,70,29.99,10.0,SSE,8.1,-,N/A,,Partly Cloudy,150,2013-03-12 05:53:00
2:53 AM,70.0,63.0,78,29.99,10.0,SSE,5.8,-,N/A,,Mostly Cloudy,150,2013-03-12 06:53:00
3:53 AM,70.0,62.1,76,29.97,10.0,SSE,5.8,-,N/A,,Mostly Cloudy,160,2013-03-12 07:53:00
4:53 AM,71.1,63.0,75,29.94,10.0,SSE,8.1,-,N/A,,Scattered Clouds,150,2013-03-12 08:53:00
5:53 AM,71.1,64.0,78,29.94,10.0,SE,9.2,-,N/A,,Clear,140,2013-03-12 09:53:00
6:53 AM,71.1,64.0,78,29.97,10.0,SSE,6.9,-,N/A,,Scattered Clouds,150,2013-03-12 10:53:00
7:27 AM,71.6,64.4,78,29.96,10.0,SSE,5.8,-,N/A,,Mostly Cloudy,150,2013-03-12 11:27:00
7:50 AM,71.6,64.4,78,29.97,10.0,SSE,4.6,-,N/A,,Mostly Cloudy,150,2013-03-12 11:50:00
7:53 AM,71.1,64.9,81,29.97,10.0,SSE,5.8,-,N/A,,Mostly Cloudy,150,2013-03-12 11:53:00
8:53 AM,73.9,66.9,79,29.99,10.0,SSE,10.4,-,N/A,,Mostly Cloudy,160,2013-03-12 12:53:00
9:53 AM,75.0,66.0,73,30.01,10.0,South,15.0,21.9,N/A,,Overcast,180,2013-03-12 13:53:00
10:53 AM,77.0,68.0,74,30.02,10.0,South,16.1,26.5,N/A,,Mostly Cloudy,170,2013-03-12 14:53:00
11:15 AM,75.2,68.0,78,30.03,10.0,South,10.4,-,N/A,,Overcast,170,2013-03-12 15:15:00
11:41 AM,78.8,68.0,69,30.02,10.0,SSE,12.7,21.9,N/A,,Mostly Cloudy,150,2013-03-12 15:41:00
11:53 AM,79.0,68.0,69,30.02,10.0,SSE,16.1,21.9,N/A,,Mostly Cloudy,160,2013-03-12 15:53:00
12:53 PM,81.0,64.9,58,30.01,10.0,South,13.8,23.0,N/A,,Overcast,170,2013-03-12 16:53:00
1:53 PM,80.1,64.9,60,29.99,10.0,SSW,11.5,19.6,N/A,,Overcast,210,2013-03-12 17:53:00
2:53 PM,79.0,64.9,62,29.98,10.0,South,13.8,20.7,N/A,,Overcast,190,2013-03-12 18:53:00
3:53 PM,79.0,64.0,60,29.97,10.0,SSW,9.2,19.6,N/A,,Overcast,210,2013-03-12 19:53:00
4:53 PM,80.1,64.0,58,29.96,10.0,SW,11.5,-,N/A,,Overcast,220,2013-03-12 20:53:00
5:53 PM,79.0,63.0,58,29.96,10.0,SW,11.5,-,N/A,,Overcast,220,2013-03-12 21:53:00
6:53 PM,78.1,63.0,60,29.96,10.0,SSW,10.4,-,N/A,,Overcast,210,2013-03-12 22:53:00
7:53 PM,75.9,63.0,64,29.95,10.0,SSW,8.1,-,N/A,,Mostly Cloudy,210,2013-03-12 23:53:00
8:53 PM,75.0,62.1,64,29.99,10.0,SW,6.9,-,N/A,,Mostly Cloudy,220,2013-03-13 00:53:00
9:53 PM,73.9,64.0,71,30.01,10.0,West,5.8,-,N/A,,Mostly Cloudy,260,2013-03-13 01:53:00
10:45 PM,73.4,64.4,73,30.01,10.0,West,5.8,-,N/A,,Overcast,260,2013-03-13 02:45:00
10:53 PM,73.0,64.9,76,30.02,10.0,West,5.8,-,N/A,,Overcast,260,2013-03-13 02:53:00
11:53 PM,72.0,66.0,81,30.03,10.0,WNW,4.6,-,N/A,,Overcast,290,2013-03-13 03:53:00